This demonstration page uses our WeatherBlox Daily Observations layout. Learn more.

Left ArrowRight Arrow

41.86663, -103.66717

Hourly Observations for January 11, 2020

Temp ( °F °C ) Dew Point ( °F °C ) Humidity (%) Winds ( mph kmh ) Pressure ( in mb ) Visibility ( mi km ) Precip ( " mm )
12:53 am 00:53 Clear 5 -15 2 -16.7 87 87 ESE 7 11 30.22 1023 10 16.0934 0 0
1:53 am 01:53 Clear 6 -14.4 3 -16.1 87 87 ESE 10 17 30.17 1022 10 16.0934 0 0
2:53 am 02:53 Clear 7 -13.9 3 -16.1 84 84 E 9 15 30.12 1020 10 16.0934 0 0
3:53 am 03:53 Clear 7 -13.9 4 -15.6 87 87 E 10 17 30.07 1018 10 16.0934 0 0
4:53 am 04:53 Clear 9 -12.8 5 -15 84 84 E 13 20 30.06 1018 10 16.0934 0 0
5:53 am 05:53 Clear 10 -12.2 6 -14.4 84 84 ESE 15 24 30.08 1019 10 16.0934 0 0
6:53 am 06:53 Clear 11 -11.7 7 -13.9 84 84 ESE 10 17 30.08 1019 10 16.0934 0 0
7:53 am 07:53 Sunny 19 -7.2 10 -12.2 68 68 S 8 13 30.05 1018 10 16.0934 0 0
8:53 am 08:53 Sunny 24 -4.4 12 -11.1 60 60 S 9 15 30.02 1017 10 16.0934 0 0
9:53 am 09:53 Sunny 27 -2.8 13 -10.6 55 55 SSE 6 9 29.98 1015 10 16.0934 0 0
10:53 am 10:53 Mostly Sunny 30 -1.1 14 -10 51 51 SE 6 9 29.95 1014 10 16.0934 0 0
11:53 am 11:53 Sunny 35 1.7 18 -7.8 50 50 SSE 5 7 29.88 1012 10 16.0934 0 0
12:53 pm 12:53 Sunny 37 2.8 21 -6.1 52 52 ESE 9 15 29.84 1011 10 16.0934 0 0
1:53 pm 13:53 Sunny 45 7.2 19 -7.2 35 35 W 15 24 29.79 1009 10 16.0934 0 0
2:53 pm 14:53 Sunny 44 6.7 18 -7.8 35 35 WNW 16 26 29.8 1009 10 16.0934 0 0
3:53 pm 15:53 Sunny 40 4.4 18 -7.8 41 41 W 16 26 29.83 1010 10 16.0934 0 0
4:53 pm 16:53 Clear 37 2.8 18 -7.8 46 46 WNW 9 15 29.85 1011 10 16.0934 0 0
5:53 pm 17:53 Clear 35 1.7 17 -8.3 48 48 WNW 12 19 29.88 1012 10 16.0934 0 0
6:53 pm 18:53 Clear 31 -0.6 17 -8.3 56 56 NW 6 9 29.89 1012 10 16.0934 0 0
7:53 pm 19:53 Clear 29 -1.7 17 -8.3 61 61 Calm 29.89 1012 10 16.0934 0 0
8:53 pm 20:53 Clear 26 -3.3 16 -8.9 66 66 NW 6 9 29.89 1012 10 16.0934 0 0
9:53 pm 21:53 Clear 22 -5.6 15 -9.4 75 75 NNW 3 6 29.88 1012 10 16.0934 0 0
10:53 pm 22:53 Clear 19 -7.2 14 -10 81 81 Calm 29.89 1012 10 16.0934 0 0
11:53 pm 23:53 Clear 17 -8.3 15 -9.4 92 92 E 6 9 29.88 1012 10 16.0934 0 0

Powered by AerisWeather